Location: Córrego Montividiu
(13.2496°S, 48.8603°W)
Time: 11:41:22
(UTC+00:00)

SL-24 DEB - Pass Details

Date: 11 March 2026
Orbit: 632 x 657 km, 92.0° (Epoch: 21 April)

Event Time Altitude Azimuth Distance (km) Brightness Sun altitude
Rises 22:17:02 0° 15° (NNE) 2,968 7.3 -11.7°
Reaches altitude 10° 22:19:17 10° 19° (NNE) 2,063 6.5 -12.3°
Maximum altitude 22:23:43 56° 97° (E) 787 4.2 -13.4°
Drops below altitude 10° 22:28:12 10° 174° (S) 2,077 6.8 -14.4°
Sets 22:30:28 0° 178° (S) 2,991 7.6 -15.0°
